When you browse on this site, cookies collect data to enhance your experience and personalize the content and advertising you see.
Visit our Privacy Policy to learn more. By continuing to use the site, you agree to this use of cookies and data.
  • In France
  • List of Countries
  • For 7 days
  • Water Temperature
  • Weather Map
  • Weather Widgets
  • user-avatar
    Login

    Hourly Weather Mansa

    Today, 23 August, Friday

    Time Temperature Precipitation Wind Pressure Humidity
    00:00 +15°C° 0 mm 4 mps 662 mmHg 49%
    01:00 +14°C° 0 mm 4 mps 662 mmHg 53%
    02:00 +13°C° 0 mm 4 mps 662 mmHg 57%
    03:00 +12°C° 0 mm 4 mps 662 mmHg 62%
    04:00 +11°C° 0 mm 4 mps 662 mmHg 66%
    05:00 +11°C° 0 mm 4 mps 661 mmHg 71%
    06:00 +12°C° 0 mm 4 mps 662 mmHg 67%
    07:00 +14°C° 0 mm 4 mps 663 mmHg 63%
    08:00 +15°C° 0 mm 5 mps 664 mmHg 59%
    09:00 +19°C° 0 mm 4 mps 664 mmHg 50%
    10:00 +22°C° 0 mm 4 mps 665 mmHg 40%
    11:00 +26°C° 0 mm 3 mps 665 mmHg 31%
    12:00 +28°C° 0 mm 3 mps 665 mmHg 27%
    13:00 +30°C° 0 mm 2 mps 664 mmHg 23%
    14:00 +32°C° 0 mm 1 mps 664 mmHg 18%
    15:00 +31°C° 0 mm 1 mps 663 mmHg 19%
    16:00 +30°C° 0 mm 1 mps 662 mmHg 19%
    17:00 +29°C° 0 mm 1 mps 662 mmHg 20%
    18:00 +26°C° 0 mm 1 mps 661 mmHg 25%
    19:00 +23°C° 0 mm 1 mps 661 mmHg 31%
    20:00 +19°C° 0 mm 1 mps 661 mmHg 36%
    21:00 +18°C° 0 mm 3 mps 661 mmHg 36%
    22:00 +18°C° 0 mm 4 mps 662 mmHg 37%
    23:00 +17°C° 0 mm 5 mps 663 mmHg 37%

    Tomorrow, 24 August, Saturday

    Time Temperature Precipitation Wind Pressure Humidity
    00:00 +17°C° 0 mm 4 mps 662 mmHg 40%
    01:00 +15°C° 0 mm 4 mps 662 mmHg 42%
    02:00 +14°C° 0 mm 4 mps 661 mmHg 45%
    03:00 +13°C° 0 mm 4 mps 661 mmHg 48%
    04:00 +13°C° 0 mm 4 mps 661 mmHg 52%
    05:00 +12°C° 0 mm 4 mps 661 mmHg 55%
    06:00 +14°C° 0 mm 4 mps 662 mmHg 54%
    07:00 +15°C° 0 mm 4 mps 663 mmHg 52%
    08:00 +17°C° 0 mm 4 mps 663 mmHg 51%
    09:00 +20°C° 0 mm 4 mps 664 mmHg 44%
    10:00 +23°C° 0 mm 4 mps 664 mmHg 36%
    11:00 +27°C° 0 mm 3 mps 664 mmHg 29%
    12:00 +29°C° 0 mm 3 mps 664 mmHg 26%
    13:00 +31°C° 0 mm 2 mps 663 mmHg 22%
    14:00 +34°C° 0 mm 2 mps 663 mmHg 19%
    15:00 +32°C° 0 mm 2 mps 662 mmHg 19%
    16:00 +31°C° 0 mm 2 mps 661 mmHg 20%
    17:00 +30°C° 0 mm 2 mps 660 mmHg 20%
    18:00 +27°C° 0 mm 2 mps 661 mmHg 24%
    19:00 +25°C° 0 mm 2 mps 661 mmHg 28%
    20:00 +22°C° 0 mm 1 mps 661 mmHg 31%
    21:00 +21°C° 0 mm 2 mps 661 mmHg 33%
    22:00 +20°C° 0 mm 3 mps 661 mmHg 34%
    23:00 +20°C° 0 mm 4 mps 661 mmHg 36%

    Day after tomorrow, 25 August, Sunday

    Time Temperature Precipitation Wind Pressure Humidity
    00:00 +19°C° 0 mm 4 mps 661 mmHg 41%
    01:00 +18°C° 0 mm 3 mps 660 mmHg 46%
    02:00 +16°C° 0 mm 3 mps 660 mmHg 51%
    03:00 +16°C° 0 mm 3 mps 660 mmHg 53%
    04:00 +16°C° 0 mm 3 mps 660 mmHg 55%
    05:00 +14°C° 0 mm 3 mps 660 mmHg 57%
    06:00 +17°C° 0 mm 4 mps 661 mmHg 54%
    07:00 +18°C° 0 mm 4 mps 662 mmHg 51%
    08:00 +19°C° 0 mm 4 mps 663 mmHg 49%
    09:00 +22°C° 0 mm 4 mps 663 mmHg 43%
    10:00 +26°C° 0 mm 4 mps 664 mmHg 37%
    11:00 +29°C° 0 mm 4 mps 664 mmHg 31%
    12:00 +31°C° 0 mm 3 mps 663 mmHg 27%
    13:00 +33°C° 0 mm 3 mps 663 mmHg 23%
    14:00 +35°C° 0 mm 2 mps 662 mmHg 19%
    15:00 +34°C° 0 mm 2 mps 661 mmHg 21%
    16:00 +32°C° 0 mm 1 mps 661 mmHg 22%
    17:00 +31°C° 0 mm 1 mps 660 mmHg 24%
    18:00 +29°C° 0 mm 1 mps 660 mmHg 26%
    19:00 +26°C° 0 mm 1 mps 660 mmHg 29%
    20:00 +24°C° 0 mm 1 mps 660 mmHg 32%
    21:00 +25°C° 0 mm 2 mps 661 mmHg 32%
    22:00 +25°C° 0 mm 3 mps 661 mmHg 31%
    23:00 +25°C° 0 mm 4 mps 662 mmHg 31%

    26 August, Monday

    Time Temperature Precipitation Wind Pressure Humidity
    00:00 +24°C° 0 mm 3 mps 661 mmHg 34%
    01:00 +22°C° 0 mm 3 mps 661 mmHg 38%
    02:00 +21°C° 0 mm 3 mps 661 mmHg 42%
    03:00 +20°C° 0 mm 3 mps 661 mmHg 47%
    04:00 +19°C° 0 mm 3 mps 661 mmHg 51%
    05:00 +19°C° 0 mm 3 mps 661 mmHg 56%
    06:00 +20°C° 0 mm 3 mps 662 mmHg 56%
    07:00 +21°C° 0 mm 3 mps 663 mmHg 55%
    08:00 +22°C° 0 mm 4 mps 664 mmHg 55%
    09:00 +26°C° 0 mm 3 mps 664 mmHg 48%
    10:00 +28°C° 0 mm 3 mps 664 mmHg 41%
    11:00 +31°C° 0 mm 3 mps 664 mmHg 34%
    12:00 +33°C° 0 mm 3 mps 663 mmHg 31%
    13:00 +34°C° 0 mm 3 mps 662 mmHg 28%
    14:00 +34°C° 0 mm 3 mps 662 mmHg 26%
    15:00 +33°C° 0 mm 3 mps 661 mmHg 27%
    16:00 +32°C° 0 mm 4 mps 661 mmHg 28%
    17:00 +30°C° 0 mm 4 mps 660 mmHg 30%
    18:00 +28°C° 0 mm 3 mps 660 mmHg 34%
    19:00 +26°C° 0 mm 2 mps 661 mmHg 39%
    20:00 +24°C° 0 mm 2 mps 661 mmHg 44%
    21:00 +24°C° 0 mm 2 mps 661 mmHg 45%
    22:00 +24°C° 0 mm 2 mps 661 mmHg 45%
    23:00 +24°C° 0 mm 2 mps 661 mmHg 46%

    27 August, Tuesday

    Time Temperature Precipitation Wind Pressure Humidity
    00:00 +24°C° 0 mm 3 mps 661 mmHg 46%
    01:00 +22°C° 0 mm 3 mps 661 mmHg 46%
    02:00 +22°C° 0 mm 3 mps 661 mmHg 46%
    03:00 +21°C° 0 mm 3 mps 661 mmHg 50%
    04:00 +20°C° 0 mm 3 mps 661 mmHg 53%
    05:00 +19°C° 0 mm 3 mps 661 mmHg 57%
    06:00 +21°C° 0 mm 4 mps 661 mmHg 53%
    07:00 +22°C° 0 mm 4 mps 662 mmHg 50%
    08:00 +25°C° 0 mm 5 mps 663 mmHg 46%
    09:00 +27°C° 0 mm 4 mps 663 mmHg 40%
    10:00 +29°C° 0 mm 4 mps 663 mmHg 34%
    11:00 +33°C° 0 mm 4 mps 663 mmHg 28%
    12:00 +34°C° 0 mm 3 mps 663 mmHg 25%
    13:00 +35°C° 0 mm 3 mps 662 mmHg 22%
    14:00 +36°C° 0 mm 2 mps 661 mmHg 19%
    15:00 +35°C° 0 mm 2 mps 661 mmHg 21%
    16:00 +34°C° 0 mm 2 mps 660 mmHg 22%
    17:00 +32°C° 0 mm 1 mps 660 mmHg 24%
    18:00 +30°C° 0 mm 1 mps 660 mmHg 26%
    19:00 +29°C° 0 mm 1 mps 660 mmHg 29%
    20:00 +27°C° 0 mm 2 mps 661 mmHg 31%
    21:00 +26°C° 0 mm 2 mps 661 mmHg 33%
    22:00 +26°C° 0 mm 2 mps 661 mmHg 35%
    23:00 +25°C° 0 mm 2 mps 661 mmHg 37%

    28 August, Wednesday

    Time Temperature Precipitation Wind Pressure Humidity
    00:00 +24°C° 0 mm 2 mps 660 mmHg 39%
    01:00 +22°C° 0 mm 3 mps 660 mmHg 42%
    02:00 +21°C° 0 mm 3 mps 659 mmHg 44%
    03:00 +20°C° 0 mm 3 mps 659 mmHg 47%
    04:00 +19°C° 0 mm 2 mps 660 mmHg 49%
    05:00 +18°C° 0 mm 2 mps 660 mmHg 52%
    06:00 +20°C° 0 mm 3 mps 660 mmHg 47%
    07:00 +22°C° 0 mm 3 mps 661 mmHg 42%
    08:00 +25°C° 0 mm 4 mps 662 mmHg 37%
    09:00 +27°C° 0 mm 3 mps 662 mmHg 32%
    10:00 +30°C° 0 mm 3 mps 663 mmHg 27%
    11:00 +34°C° 0 mm 3 mps 663 mmHg 22%
    12:00 +35°C° 0 mm 3 mps 662 mmHg 19%
    13:00 +36°C° 0 mm 2 mps 661 mmHg 17%
    14:00 +37°C° 0 mm 2 mps 661 mmHg 15%
    15:00 +36°C° 0 mm 2 mps 660 mmHg 16%
    16:00 +36°C° 0 mm 2 mps 660 mmHg 16%
    17:00 +35°C° 0 mm 2 mps 659 mmHg 16%
    18:00 +31°C° 0 mm 2 mps 659 mmHg 20%
    19:00 +28°C° 0 mm 1 mps 659 mmHg 23%
    20:00 +24°C° 0 mm 1 mps 659 mmHg 27%
    21:00 +24°C° 0 mm 2 mps 659 mmHg 28%
    22:00 +24°C° 0 mm 2 mps 659 mmHg 28%
    23:00 +22°C° 0 mm 3 mps 659 mmHg 29%
    Show more